Regional Weather Roundup
Issued by NWS

Home | Current Version | Previous Version | Text Only | Print | Product List | Glossary On
Versions: 1 2 3 4 5 6 7 8 9 10 11 12 13 14 15 16 17 18 19 20 21 22 23 24 25 26 27 28 29 30 31 32 33 34 35 36 37 38 39 40 41 42 43 44 45 46 47 48 49 50
000
ASCA42 TJSJ 221010
RWRPR
PUERTO RICO/U.S. VIRGIN ISLANDS HOURLY WEATHER ROUNDUP
NATIONAL WEATHER SERVICE SAN JUAN PR
600 AM AST FRI MAY 22 2015

PRZ001-004-221100-
PUERTO RICO

CITY           SKY/WX    TMP DP  RH WIND       PRES   REMARKS
SAN JUAN LMM   PTCLDY    79  75  89 CALM      30.06R
$$

PRZ006-007-221100-
U.S. VIRGIN ISLANDS

CITY           SKY/WX    TMP DP  RH WIND       PRES   REMARKS
CHARLOTTE AMA  MOCLDY    81  75  83 SE15      30.05R
CHRISTIANSTED  CLOUDY    81  73  78 E14       30.06R
$$

HOURLY WEATHER ROUNDUP FOR THE NEWS MEDIA

CITY           SKY/WX    TMP DP  RH WIND       PRES   REMARKS
ORLANDO        CLEAR     78  74  87 NW5       30.02R
NEW YORK       PTCLDY    56  42  59 NW8       29.88R
NEWARK         PTCLDY    54  44  69 NW9       29.89R
CHICAGO        CLEAR     47  39  74 N9        30.10R
HARTFORD       LGT RAIN  50  49  96 S3        29.82F
BOSTON         LGT RAIN  52  44  74 SW9       29.83R
DALLAS         CLOUDY    62  58  86 E9        30.14R
PHILADELPHIA   CLEAR     53  44  71 W9        29.95R
LOS ANGELES    MOCLDY    57  53  86 W15       29.98S
WASHINGTON DC  PTCLDY    48  42  80 CALM      30.03R


USA.gov is the U.S. government's official web portal to all federal, state and local government web resources and services.